星链-2453 (STARLINK-2453 )

导读 | 星芒AI

STARLINK-2453 是 SpaceX Starlink 项目中的一颗低轨道通信卫星,旨在为全球用户提供高速互联网服务。该卫星属于 Starlink 群体部署的众多卫星之一,运行在约 550 公里的高度,使用先进的相控阵天线和激光通信技术,以提高连接速度和稳定性。STARLINK-2453 有助于扩大 Starlink 在偏远和农村地区的网络覆盖,提升全球互联网接入的公平性与效率。

基本信息
目录编号:
47845
目录名称:
STARLINK-2453
国际标识:
2021-018BL
轨道中心:
EARTH
卫星名称:
星链-2453
卫星全名:
星链-2453 (STARLINK-2453 )
卫星状态:
在轨 (已飞行1743 天)
发射日期:
2021-03-11 UTC
国别 :
美国 (US)
星等 :
--
轨道信息
数据来源 国际轨道数据
星历时间: 2025-12-17T18:41:22+0800
16小时前
查看轨道信息
半长轴: 6925.317km
偏心率: 0.000132
轨道倾角: 53.054°
近地点辐角 93.119°
升交点赤经 260.827°
平近点角 266.995°
近地点: 546.267km
远地点: 548.097km
周期: 95.591分钟
每日圈数: 15.064104
详细信息
固有亮度:
5
最大亮度:
2.5
卫星平台:
Starlink V1.0
覆盖范围:
全球
运营商:
太空探索技术公司
运营商所在国:
美国
制造商(研发单位):
太空探索技术公司
制造商所在国:
美国
使用方式:
暂无
卫星简介
星链(Starlink)计划是由太空探索技术公司(SpaceX)提出的一个巨型低轨卫星互联网星座项目,计划在2019年至2024年间在太空搭建由约1.2万颗卫星组成的“星链”网络,其中1584颗将部署在地球上空550千米处的近地轨道,并从2020年开始工作。该卫星仍在工作。
2D轨道图
3D轨道图
轨道高度分析图
轨道倾角分析图
轨道综合分析图
查看轨道综合分析图